Overview Statistics Trail Chart Weather Telemetry Raw packets
 

This is the latest recevied weather packets stored in our database for station/object N7IGG. If no packets are shown the sender has not sent any weather packets the latest 10 day(s).

<< 107 108 109 110 111 112 113 >>
Time Temp. Humidity Pressure Rain* Wind** Luminosity Snow
1777384562 9.44° C 93% 1023.2 hPa 0 mm - 10 W/m² -
1777384256 9.44° C 93% 1023.3 hPa 0 mm - 6 W/m² -
1777383952 9.44° C 92% 1023.3 hPa 0 mm - 7 W/m² -
1777383648 9.44° C 92% 1023 hPa 0 mm - 6 W/m² -
1777383345 9.44° C 92% 1023.1 hPa 0 mm - 5 W/m² -
1777383042 9.44° C 92% 1023 hPa 0 mm - 7 W/m² -
1777382738 9.44° C 92% 1023 hPa 0 mm - 5 W/m² -
1777382434 9.44° C 92% 1022.9 hPa 0 mm - 2 W/m² -
1777382131 9.44° C 92% 1022.8 hPa 0 mm - 1 W/m² -
1777381827 9.44° C 92% 1022.7 hPa 0 mm - 0 W/m² -
1777381526 9.44° C 91% 1023 hPa 0 mm - 0 W/m² -
1777381222 9.44° C 91% 1022.9 hPa 0 mm - 0 W/m² -
1777380920 9.44° C 91% 1022.8 hPa 0 mm - 0 W/m² -
1777380617 9.44° C 91% 1022.7 hPa 0 mm - 0 W/m² -
1777380312 9.44° C 91% 1022.5 hPa 0 mm - 0 W/m² -
1777380009 9.44° C 91% 1022.5 hPa 0 mm - 0 W/m² -
1777379705 9.44° C 90% 1022.6 hPa 0 mm - 0 W/m² -
1777379401 9.44° C 90% 1022.5 hPa 0 mm - 0 W/m² -
1777379096 9.44° C 90% 1022.5 hPa 0 mm - 0 W/m² -
1777378796 9.44° C 90% 1022.6 hPa 0 mm - 0 W/m² -
1777378494 9.44° C 90% 1022.4 hPa 0 mm - 0 W/m² -
1777378189 9.44° C 90% 1022.4 hPa 0 mm - 0 W/m² -
1777377888 9.44° C 90% 1022.4 hPa 0 mm - 0 W/m² -
1777377587 9.44° C 89% 1022.4 hPa 0 mm - 0 W/m² -
1777377283 9.44° C 89% 1022.4 hPa 0 mm - 0 W/m² -

* Rain latest hour (hover to see other rain measurements)
** Current wind speed in m/s (hover to see current wind gust speed)